This demonstration page uses our WeatherBlox Daily Observations layout. Learn more.

Left ArrowRight Arrow

Hourly Observations for July 14, 2021

Temp ( °F °C ) Dew Point ( °F °C ) Humidity (%) Winds ( mph kmh ) Pressure ( in mb ) Visibility ( mi km ) Precip ( " mm )
12:15 am 00:15 Partly Cloudy 75 23.7 70 21 85 85 ESE 12 19 29.84 1011 10 16 N/A
12:35 am 00:35 Partly Cloudy 75 24.1 69 20.3 79 79 ESE 14 22 29.83 1010 10 16 N/A
12:55 am 00:55 Clear 75 23.7 68 20.2 81 81 ESE 12 19 29.83 1010 10 16 N/A
1:15 am 01:15 Clear with Nearby Thunderstorms 74 23.6 68 20.1 81 81 SE 9 15 29.83 1010 10 16 N/A
1:35 am 01:35 Partly Cloudy with Nearby Thunderstorms 73 23 68 20.1 84 84 S 8 13 29.86 1011 10 16 N/A
1:55 am 01:55 Partly Cloudy with Thunderstorms 73 22.7 68 19.9 84 84 WSW 14 22 29.90 1012 10 16 N/A
2:15 am 02:15 Partly Cloudy with Thunderstorms 70 20.9 63 17.4 80 80 W 26 43 29.93 1014 7 11 0.03 0.76
2:35 am 02:35 Mostly Cloudy with Thunderstorms 68 20.1 61 16.3 79 79 SSE 7 11 29.88 1012 7 11 0.26 6.60
2:50 am 02:50 Partly Cloudy with Thunderstorms 68 20 64 17.5 86 86 SE 10 17 29.87 1012 10 16 0.26 6.60
3:15 am 03:15 Clear with Thunderstorms 68 20 64 17.6 86 86 ESE 16 26 29.84 1011 10 16 N/A
3:35 am 03:35 Clear with Nearby Thunderstorms 69 20.3 64 18 87 87 SE 17 28 29.81 1009 10 16 N/A
3:55 am 03:55 Windy with Storms Likely 70 20.9 64 18 84 84 SSE 26 43 29.73 1007 10 16 N/A
4:15 am 04:15 Clear with Nearby Thunderstorms 71 21.6 64 18 80 80 SSE 20 31 29.76 1008 10 16 N/A
4:55 am 04:55 Mostly Cloudy with Nearby Thunderstorms 70 21.3 65 18.2 83 83 S 12 19 29.80 1009 10 16 N/A
5:15 am 05:15 Partly Cloudy with Nearby Thunderstorms 71 21.5 64 18 81 81 SSE 5 7 29.82 1010 10 16 N/A
5:35 am 05:35 Clear with Thunderstorms 70 20.9 64 18 84 84 SSE 5 7 29.80 1009 10 16 N/A
5:55 am 05:55 Partly Cloudy 69 20.8 64 18 84 84 SSE 12 19 29.80 1009 10 16 N/A
6:15 am 06:15 Mostly Cloudy with Thunderstorms 71 21.7 64 17.7 78 78 SE 9 15 29.80 1009 10 16 N/A
6:35 am 06:35 Partly Cloudy 69 20.8 65 18.1 85 85 E 6 9 29.84 1010 10 16 0.01 0.25
6:55 am 06:55 Sunny with Nearby Thunderstorms 69 20.4 65 18.3 88 88 ESE 8 13 29.84 1010 10 16 0.01 0.25
7:15 am 07:15 Partly Cloudy with Nearby Thunderstorms 68 20.1 65 18.2 89 89 E 8 13 29.84 1011 10 16 N/A
7:35 am 07:35 Mostly Cloudy 68 20.1 65 18.5 91 91 ENE 9 15 29.84 1011 4 6 0.04 1.02
7:55 am 07:55 Partly Cloudy 68 20.1 65 18.5 91 91 ENE 6 9 29.84 1011 10 16 0.05 1.27
8:15 am 08:15 Sunny 69 20.5 66 18.8 90 90 E 9 15 29.84 1010 10 16 N/A
8:35 am 08:35 Sunny 69 20.7 66 19 90 90 E 6 9 29.84 1010 10 16 N/A
8:55 am 08:55 Sunny 70 21 66 19 88 88 ENE 3 6 29.84 1011 10 16 N/A
9:15 am 09:15 Sunny 72 22 67 19.2 84 84 E 6 9 29.83 1010 10 16 N/A
9:35 am 09:35 Sunny 73 22.7 67 19.3 81 81 ESE 5 7 29.83 1010 10 16 N/A
9:55 am 09:55 Sunny 74 23.4 66 19 76 76 ESE 3 6 29.82 1010 10 16 N/A
10:15 am 10:15 Sunny 75 24 66 19.1 74 74 SSE 3 6 29.83 1010 10 16 N/A
10:35 am 10:35 Sunny 75 23.7 66 18.8 74 74 SE 6 9 29.83 1010 10 16 N/A
10:55 am 10:55 Sunny 75 23.8 66 18.9 74 74 SSE 6 9 29.83 1010 10 16 N/A
11:15 am 11:15 Sunny 75 24 66 19 74 74 NW 3 6 29.85 1011 10 16 N/A
11:35 am 11:35 Sunny 76 24.5 66 19 72 72 N N/A 29.84 1011 10 16 N/A
11:55 am 11:55 Sunny 78 25.3 67 19.2 69 69 SE 6 9 29.83 1010 10 16 N/A
12:15 pm 12:15 Sunny with Nearby Thunderstorms 79 26 67 19.3 67 67 E 9 15 29.83 1010 10 16 N/A
12:35 pm 12:35 Partly Cloudy 77 25 65 18.4 67 67 E 8 13 29.83 1010 10 16 N/A
12:55 pm 12:55 Sunny 77 25.1 66 19.1 69 69 E 5 7 29.84 1010 10 16 N/A
1:15 pm 13:15 Sunny 78 25.5 68 19.9 71 71 NNE 5 7 29.84 1010 10 16 N/A
1:35 pm 13:35 Sunny 78 25.5 66 19.1 68 68 N N/A 29.84 1010 10 16 N/A
1:55 pm 13:55 Partly Cloudy 78 25.7 67 19.2 67 67 NE 3 6 29.83 1010 10 16 N/A
2:15 pm 14:15 Mostly Cloudy 77 24.8 70 20.9 79 79 NNE 9 15 29.85 1011 10 16 N/A
2:35 pm 14:35 Cloudy 77 25 69 20.6 77 77 NNE 6 9 29.86 1011 10 16 N/A
2:55 pm 14:55 Cloudy 77 25 69 20.5 76 76 NE 8 13 29.85 1011 10 16 N/A
3:15 pm 15:15 Mostly Cloudy 78 25.5 69 20.7 75 75 ENE 10 17 29.85 1011 10 16 N/A
3:35 pm 15:35 Partly Cloudy 79 26 70 20.9 74 74 NE 5 7 29.85 1011 10 16 N/A
3:55 pm 15:55 Sunny 78 25.6 69 20.3 73 73 NE 8 13 29.85 1011 10 16 N/A
4:15 pm 16:15 Sunny 78 25.8 69 20.6 73 73 NE 9 15 29.85 1011 10 16 N/A
4:35 pm 16:35 Sunny 78 25.6 69 20.7 74 74 NE 7 11 29.86 1011 10 16 N/A
4:55 pm 16:55 Sunny 78 25.4 69 20.4 74 74 NE 12 19 29.86 1011 10 16 N/A
5:15 pm 17:15 Sunny 77 25 69 20.4 76 76 NE 13 20 29.86 1011 10 16 N/A
5:35 pm 17:35 Sunny 76 24.7 69 20.3 77 77 NE 13 20 29.86 1011 10 16 N/A
5:55 pm 17:55 Sunny 76 24.5 69 20.5 78 78 NNE 14 22 29.86 1011 10 16 N/A
6:15 pm 18:15 Sunny 76 24.5 68 20 76 76 NNE 12 19 29.85 1011 10 16 N/A
6:35 pm 18:35 Partly Cloudy 76 24.6 68 20.1 76 76 NNE 12 19 29.86 1011 10 16 N/A
6:55 pm 18:55 Mostly Cloudy 75 24 67 19.3 75 75 NNE 14 22 29.87 1011 10 16 N/A
7:15 pm 19:15 Mostly Cloudy 75 23.7 67 19.4 77 77 NE 14 22 29.87 1012 10 16 N/A
7:35 pm 19:35 Cloudy 74 23.5 66 18.7 75 75 NE 10 17 29.88 1012 10 16 N/A
7:55 pm 19:55 Mostly Cloudy 73 23 66 18.7 77 77 NE 8 13 29.90 1012 10 16 N/A
8:15 pm 20:15 Mostly Cloudy 73 23 66 18.7 77 77 NE 9 15 29.91 1013 10 16 N/A
8:35 pm 20:35 Partly Cloudy 73 22.5 66 18.8 80 80 NE 12 19 29.91 1013 10 16 N/A
8:55 pm 20:55 Partly Cloudy 72 22 66 18.9 83 83 NE 8 13 29.92 1013 10 16 N/A
9:15 pm 21:15 Partly Cloudy 71 21.4 64 18 81 81 NE 9 15 29.92 1013 10 16 N/A
9:35 pm 21:35 Clear 69 20.7 64 18 85 85 NE 7 11 29.93 1013 10 16 N/A
9:55 pm 21:55 Clear 69 20.3 65 18.2 88 88 ENE 6 9 29.94 1014 10 16 N/A
10:15 pm 22:15 Clear 68 20 65 18.1 89 89 ENE 6 9 29.95 1014 10 16 N/A
10:35 pm 22:35 Clear 67 19.6 65 18.1 91 91 ENE 5 7 29.96 1014 10 16 N/A
10:55 pm 22:55 Clear 67 19.5 64 18 91 91 NNE 5 7 29.97 1015 10 16 N/A
11:15 pm 23:15 Clear 66 19 64 17.7 92 92 NNE 5 7 29.97 1015 10 16 N/A
11:35 pm 23:35 Clear 66 18.7 64 17.7 94 94 NNE 6 9 29.97 1015 10 16 N/A
11:55 pm 23:55 Clear 66 18.7 64 17.6 93 93 NE 3 6 29.97 1015 10 16 N/A

Powered by AerisWeather